This demonstration page uses our WeatherBlox Daily Observations layout. Learn more.

Left ArrowRight Arrow

39.08367, -84.50855

Hourly Observations for July 11, 2020

Temp ( °F °C ) Dew Point ( °F °C ) Humidity (%) Winds ( mph kmh ) Pressure ( in mb ) Visibility ( mi km ) Precip ( " mm )
12:53 am 00:53 Mostly Cloudy 77 25 65 18.3 66 66 W 6 9 29.85 1011 10 16 N/A
1:53 am 01:53 Cloudy 78 25.6 64 17.8 62 62 WNW 9 15 29.85 1011 10 16 N/A
2:53 am 02:53 Mostly Clear 76 24.4 64 17.8 67 67 WNW 8 13 29.85 1011 10 16 N/A
3:53 am 03:53 Clear 74 23.3 64 17.8 71 71 WNW 8 13 29.86 1011 10 16 N/A
4:53 am 04:53 Mostly Clear 73 22.8 64 17.8 74 74 NW 7 11 29.86 1011 10 16 N/A
5:53 am 05:53 Mostly Clear 74 23.3 64 17.8 71 71 WNW 7 11 29.88 1012 10 16 N/A
6:53 am 06:53 Sunny 72 22.2 64 17.8 76 76 WNW 3 6 29.87 1012 10 16 N/A
7:53 am 07:53 Sunny 74 23.3 65 18.3 74 74 W 6 9 29.89 1012 10 16 N/A
8:53 am 08:53 Sunny 78 25.6 65 18.3 64 64 VRB 6 9 29.90 1013 10 16 N/A
9:53 am 09:53 Sunny 80 26.7 66 18.9 62 62 VRB 6 9 29.91 1013 10 16 N/A
10:53 am 10:53 Mostly Sunny 82 27.8 63 17.2 53 53 WSW 10 17 29.91 1013 10 16 N/A
11:53 am 11:53 Partly Cloudy 84 28.9 62 16.7 48 48 WNW 12 19 29.90 1013 10 16 N/A
12:53 pm 12:53 Partly Cloudy 85 29.4 62 16.7 46 46 W 10 17 29.90 1013 10 16 N/A
1:53 pm 13:53 Partly Cloudy 85 29.4 62 16.7 46 46 WNW 10 17 29.89 1012 10 16 N/A
2:53 pm 14:53 Partly Cloudy 86 30 60 15.6 42 42 NW 16 26 29.88 1012 10 16 N/A
3:53 pm 15:53 Mostly Sunny 87 30.6 61 16.1 42 42 WNW 10 17 29.88 1012 10 16 N/A
4:39 pm 16:39 Mostly Sunny 87 30.6 60 15.6 40 40 VRB 7 11 29.86 1011 10 16 N/A
4:53 pm 16:53 Mostly Sunny 88 31.1 60 15.6 39 39 NNW 10 17 29.86 1011 10 16 N/A
5:53 pm 17:53 Mostly Sunny 87 30.6 62 16.7 43 43 W 8 13 29.84 1011 10 16 N/A
6:53 pm 18:53 Partly Cloudy 84 28.9 61 16.1 46 46 WNW 9 15 29.85 1011 10 16 N/A
7:17 pm 19:17 Windy with Storms Likely 78 25.6 59 15 52 52 WNW 23 37 29.88 1012 6 10 0.01 0.25
7:32 pm 19:32 Mostly Cloudy with Nearby Thunderstorms 69 20.6 62 16.7 78 78 W 13 20 29.86 1011 10 16 0.03 0.76
7:53 pm 19:53 Mostly Cloudy with Rain 68 20 63 17.2 84 84 WSW 12 19 29.88 1012 6 10 0.05 1.27
8:53 pm 20:53 Mostly Sunny 68 20 64 17.8 87 87 SSW 9 15 29.86 1011 10 16 0.06 1.52
9:53 pm 21:53 Clear 68 20 65 18.3 90 90 SSE 3 6 29.87 1012 10 16 N/A
10:53 pm 22:53 Clear 68 20 64 17.8 87 87 SSW 7 11 29.86 1011 10 16 N/A
11:53 pm 23:53 Clear 68 20 65 18.3 90 90 SSW 7 11 29.85 1011 10 16 N/A

Powered by AerisWeather